Location: Riverside Cemetery
(38.3047°N, 99.7773°W)
Time: 19:21:39
(UTC+00:00)

ATLAS 2AS CENTAUR R/B - Pass Details

Date: 19 September 2020
Orbit: 939 x 1273 km, 63.7° (Epoch: 19 October)

Event Time Altitude Azimuth Distance (km) Brightness Sun altitude
Rises 02:19:06 0° 181° (S) 4,142 5.6 -19.6°
Reaches altitude 10° 02:22:07 10° 172° (S) 3,210 4.9 -20.2°
Enters shadow 02:28:37 35° 116° (ESE) 1,943 3.5 -21.4°
Exits shadow 02:33:13 21° 63° (ENE) 2,519 4.3 -22.3°
Drops below altitude 10° 02:35:57 10° 49° (NE) 3,262 5.0 -22.8°
Sets 02:39:00 0° 41° (NE) 4,217 5.6 -23.3°
